Location: Newark
(34.0131°N, 4.3314°W)
Time: 22:56:05
(UTC+00:00)

Tiros 1 despin weight - All Passes

Search period start: 14 October 2019 00:00
Search period end: 24 October 2019 00:00
Orbit: 594 x 643 km, 48.2° (Epoch: 14 October)

Date Brightness Start Highest point End Pass type
(mag) Time Alt. Az. Time Alt. Az. Time Alt. Az.
14 Oct - 01:59:22 10° SSW 02:03:42 39° SE 02:08:05 10° ENE night (unlit)
14 Oct - 03:40:55 10° W 03:45:18 38° NNW 03:49:41 10° NE visible
14 Oct - 05:25:03 10° NW 05:27:54 16° N 05:30:44 10° NNE visible
14 Oct - 07:08:08 10° NNW 07:10:59 16° N 07:13:48 10° NE daylight
14 Oct - 08:49:13 10° NW 08:53:34 39° NNE 08:57:52 10° E daylight
14 Oct - 10:30:53 10° WNW 10:35:07 36° SW 10:39:16 10° SSE daylight
15 Oct - 00:37:40 10° SSE 00:39:12 11° SE 00:40:45 10° ESE night (unlit)
15 Oct - 02:15:31 10° SW 02:20:11 81° SE 02:24:54 10° NE visible
15 Oct - 03:58:20 10° WNW 04:02:11 24° NNW 04:06:02 10° NNE visible
15 Oct - 05:42:36 10° NW 05:45:05 14° N 05:47:32 10° NNE visible
15 Oct - 07:24:36 10° NNW 07:28:05 20° NNE 07:31:32 10° ENE daylight
15 Oct - 09:05:39 10° NW 09:10:18 71° NE 09:14:51 10° ESE daylight
15 Oct - 10:48:26 10° W 10:51:26 17° SW 10:54:24 10° S daylight
16 Oct - 00:51:40 10° S 00:55:28 25° SE 00:59:19 10° ENE night (unlit)
16 Oct - 02:32:15 10° WSW 02:36:49 53° NNW 02:41:25 10° NE visible
16 Oct - 04:16:00 10° WNW 04:19:13 18° NNW 04:22:25 10° NNE visible
16 Oct - 05:59:41 10° NNW 06:02:17 14° N 06:04:51 10° NE visible
16 Oct - 07:40:57 10° NW 07:45:03 29° NNE 07:49:06 10° E daylight
16 Oct - 09:22:17 10° WNW 09:26:51 57° SW 09:31:19 10° SE daylight
17 Oct - 01:07:20 10° SSW 01:11:51 53° SE 01:16:26 10° ENE night (unlit)
17 Oct - 02:49:26 10° W 02:53:37 31° NNW 02:57:49 10° NE visible
17 Oct - 04:33:42 10° NW 04:36:21 15° N 04:39:01 10° NNE visible
17 Oct - 06:16:18 10° NNW 06:19:26 17° NNE 06:22:32 10° NE daylight
17 Oct - 07:57:19 10° NW 08:01:52 49° NNE 08:06:20 10° ESE daylight
17 Oct - 09:39:21 10° WNW 09:43:14 27° SW 09:47:04 10° S daylight
17 Oct - 23:44:25 10° SSE 23:47:17 16° SE 23:50:09 10° E night (unlit)
18 Oct - 01:23:44 10° WSW 01:28:23 77° NW 01:33:06 10° NE night (unlit)
18 Oct - 03:06:59 10° WNW 03:10:33 21° NNW 03:14:09 10° NNE visible
18 Oct - 04:51:05 10° NNW 04:53:33 14° N 04:56:01 10° NNE visible
18 Oct - 06:32:42 10° NNW 06:36:29 23° NNE 06:40:13 10° ENE daylight
18 Oct - 08:13:50 10° NW 08:18:31 87° SW 08:23:07 10° SE daylight
18 Oct - 09:57:38 10° WSW 09:59:30 12° SW 10:01:21 10° SSW daylight
18 Oct - 23:59:23 10° SSW 00:03:34 34° SE 00:07:49 10° ENE night (unlit)
19 Oct - 01:40:41 10° WSW 01:45:05 41° NNW 01:49:33 10° NE night (unlit)
19 Oct - 03:24:42 10° NW 03:27:39 16° NNW 03:30:36 10° NNE visible
19 Oct - 05:07:57 10° NNW 05:10:44 15° N 05:13:32 10° NE visible
19 Oct - 06:49:03 10° NW 06:53:23 36° NNE 06:57:40 10° E daylight
19 Oct - 08:30:37 10° WNW 08:35:00 41° SW 08:39:19 10° SSE daylight
20 Oct - 00:15:25 10° SW 00:20:01 73° SE 00:24:42 10° NE night (unlit)
20 Oct - 01:58:02 10° W 02:01:57 26° NNW 02:05:54 10° NNE night (unlit)
20 Oct - 03:42:18 10° NW 03:44:49 14° N 03:47:20 10° NNE visible
20 Oct - 05:24:26 10° NNW 05:27:51 19° NNE 05:31:15 10° ENE visible
20 Oct - 07:05:28 10° NW 07:10:08 64° NE 07:14:43 10° ESE daylight
20 Oct - 08:47:59 10° W 08:51:20 20° SW 08:54:38 10° S daylight
20 Oct - 22:51:47 10° S 22:55:21 22° SE 22:58:58 10° E night (unlit)
21 Oct - 00:32:03 10° WSW 00:36:38 58° NW 00:41:16 10° NE night (unlit)
21 Oct - 02:15:40 10° WNW 02:18:58 19° NNW 02:22:16 10° NNE night (unlit)
21 Oct - 03:59:27 10° NNW 04:02:01 14° N 04:04:35 10° NE visible
21 Oct - 05:40:48 10° NW 05:44:50 28° NNE 05:48:51 10° E visible
21 Oct - 07:22:03 10° WNW 07:26:42 64° SW 07:31:16 10° SE daylight
21 Oct - 23:07:18 10° SSW 23:11:42 47° SE 23:16:11 10° ENE night (unlit)
22 Oct - 00:49:11 10° W 00:53:24 33° NNW 00:57:39 10° NE night (unlit)
22 Oct - 02:33:23 10° NW 02:36:06 15° N 02:38:49 10° NNE visible
22 Oct - 04:16:08 10° NNW 04:19:11 17° NNE 04:22:13 10° NE visible
22 Oct - 05:57:09 10° NW 06:01:40 45° NNE 06:06:08 10° ESE visible
22 Oct - 07:39:02 10° WNW 07:43:07 30° SW 07:47:09 10° SSE daylight
22 Oct - 21:44:45 10° SSE 21:47:10 14° SE 21:49:36 10° E night (unlit)
22 Oct - 23:23:36 10° SW 23:28:13 84° NW 23:32:54 10° NE night (unlit)
23 Oct - 01:06:40 10° WNW 01:10:19 22° NNW 01:14:00 10° NNE night (unlit)
23 Oct - 02:50:49 10° NNW 02:53:17 14° N 02:55:44 10° NNE visible
23 Oct - 04:32:33 10° NNW 04:36:14 22° NNE 04:39:55 10° ENE visible
23 Oct - 06:13:38 10° NW 06:18:20 85° NE 06:22:59 10° SE daylight
23 Oct - 07:56:56 10° W 07:59:24 14° SW 08:01:51 10° SSW daylight
23 Oct - 21:59:26 10° SSW 22:03:27 30° SE 22:07:30 10° ENE night (unlit)
23 Oct - 23:40:28 10° WSW 23:44:53 45° NNW 23:49:23 10° NE night (unlit)
